This is the latest recevied weather packets stored in our database for station/object VK4AB-13. If no packets are shown the sender has not sent any weather packets the latest 10 day(s).
| Time | Temp. | Humidity | Pressure | Rain* | Wind** | Luminosity | Snow |
|---|---|---|---|---|---|---|---|
| 1777169645 | 22.78° C | 69% | 1020.1 hPa | 0 mm | - | 120 W/m² | - |
| 1777169345 | 22.78° C | 67% | 1020.1 hPa | 0 mm | - | 390 W/m² | - |
| 1777169045 | 23.33° C | 66% | 1020.1 hPa | 0 mm | - | 471 W/m² | - |
| 1777168745 | 23.33° C | 65% | 1020.2 hPa | 0 mm | - | 320 W/m² | - |
| 1777168445 | 23.33° C | 66% | 1020.2 hPa | 0 mm | - | 545 W/m² | - |
| 1777168145 | 23.33° C | 67% | 1020.4 hPa | 0 mm | - | 719 W/m² | - |
| 1777167845 | 22.78° C | 67% | 1020.4 hPa | 0 mm | - | 325 W/m² | - |
| 1777167545 | 22.78° C | 67% | 1020.6 hPa | 0 mm | - | 276 W/m² | - |
| 1777167245 | 22.78° C | 68% | 1020.6 hPa | 0 mm | - | 285 W/m² | - |
| 1777166945 | 22.78° C | 68% | 1020.8 hPa | 0 mm | - | 306 W/m² | - |
| 1777166645 | 22.78° C | 68% | 1020.8 hPa | 0 mm | - | 207 W/m² | - |
| 1777166345 | 23.33° C | 68% | 1021 hPa | 0 mm | - | 209 W/m² | - |
| 1777166045 | 23.33° C | 65% | 1020.9 hPa | 0 mm | - | 207 W/m² | - |
| 1777165745 | 23.33° C | 65% | 1021 hPa | 0 mm | - | 311 W/m² | - |
| 1777165445 | 23.33° C | 66% | 1021 hPa | 0 mm | - | 373 W/m² | - |
| 1777165145 | 23.33° C | 66% | 1021.2 hPa | 0 mm | - | 387 W/m² | - |
| 1777164845 | 22.78° C | 66% | 1021.2 hPa | 0 mm | - | 376 W/m² | - |
| 1777164545 | 22.78° C | 67% | 1021.3 hPa | 0 mm | - | 403 W/m² | - |
| 1777164245 | 22.78° C | 66% | 1021.3 hPa | 0 mm | - | 232 W/m² | - |
| 1777163945 | 23.33° C | 66% | 1021.3 hPa | 0 mm | - | 297 W/m² | - |
| 1777163645 | 22.78° C | 66% | 1021.4 hPa | 0 mm | - | 279 W/m² | - |
| 1777163345 | 23.33° C | 66% | 1021.5 hPa | 0 mm | - | 265 W/m² | - |
| 1777163045 | 23.33° C | 65% | 1021.5 hPa | 0 mm | - | 214 W/m² | - |
| 1777162745 | 23.33° C | 65% | 1021.6 hPa | 0 mm | - | 188 W/m² | - |
| 1777162445 | 23.33° C | 66% | 1021.7 hPa | 0 mm | - | 316 W/m² | - |
* Rain latest hour (hover to see other rain measurements)
** Current wind speed in m/s (hover to see current wind gust speed)